Location: Devore Heights
(34.2372°N, 117.4156°W)
Time: 02:34:11
(UTC+00:00)

SR - Pass Details

Date: 14 September 2024
Orbit: 578 x 855 km, 66.7° (Epoch: 02 October)

Event Time Altitude Azimuth Distance (km) Brightness Sun altitude
Rises 08:03:59 0° 305° (NW) 3,044 - -52.3°
Reaches altitude 10° 08:08:13 10° 269° (W) 2,202 - -52.2°
Maximum altitude 08:09:26 11° 255° (WSW) 2,166 - -52.2°
Drops below altitude 10° 08:10:41 10° 240° (WSW) 2,245 - -52.1°
Sets 08:15:12 0° 205° (SSW) 3,244 - -51.9°
